This demonstration page uses our WeatherBlox Daily Observations layout. Learn more.

Left ArrowRight Arrow

39.92423, -83.80882

Hourly Observations for March 30, 2022

Temp ( °F °C ) Dew Point ( °F °C ) Humidity (%) Winds ( mph kmh ) Pressure ( in mb ) Visibility ( mi km ) Precip ( " mm )
12:56 am 00:56 Cloudy 38 3.3 24 -4.4 57 57 E 15 24 30.03 1017 10 16 0.00 0.00
1:56 am 01:56 Cloudy 38 3.3 24 -4.4 57 57 ESE 16 26 29.99 1016 10 16 0.00 0.00
2:56 am 02:56 Cloudy 38 3.3 25 -3.9 60 60 ESE 15 24 29.98 1015 10 16 0.00 0.00
3:56 am 03:56 Mostly Clear 38 3.3 24 -4.4 57 57 ESE 13 20 29.96 1014 10 16 0.00 0.00
4:56 am 04:56 Clear 38 3.3 24 -4.4 57 57 ESE 14 22 29.93 1013 10 16 0.00 0.00
5:56 am 05:56 Cloudy 40 4.4 24 -4.4 53 53 ESE 15 24 29.89 1012 10 16 0.00 0.00
6:56 am 06:56 Cloudy 40 4.4 25 -3.9 55 55 SE 10 17 29.88 1012 10 16 0.00 0.00
7:56 am 07:56 Cloudy 41 5 26 -3.3 55 55 ESE 10 17 29.88 1012 10 16 0.00 0.00
8:56 am 08:56 Cloudy 44 6.7 27 -2.8 51 51 SE 14 22 29.85 1011 10 16 0.00 0.00
9:56 am 09:56 Cloudy 50 10 32 0 50 50 SSE 15 24 29.82 1010 10 16 0.00 0.00
10:56 am 10:56 Partly Cloudy 60 15.6 40 4.4 47 47 S 10 17 29.79 1009 10 16 0.00 0.00
11:56 am 11:56 Partly Cloudy 66 18.9 45 7.2 47 47 S 14 22 29.75 1007 10 16 0.00 0.00
12:56 pm 12:56 Partly Cloudy 70 21.1 47 8.3 44 44 S 13 20 29.72 1006 10 16 0.00 0.00
1:56 pm 13:56 Partly Cloudy 74 23.3 49 9.4 41 41 S 17 28 29.68 1005 10 16 0.00 0.00
2:56 pm 14:56 Sunny 76 24.4 42 5.6 30 30 SSW 20 31 29.62 1003 10 16 0.00 0.00
3:56 pm 15:56 Sunny 76 24.4 39 3.9 26 26 S 21 33 29.57 1002 10 16 0.00 0.00
4:56 pm 16:56 Sunny 75 23.9 38 3.3 26 26 S 15 24 29.53 1000 10 16 0.00 0.00
5:56 pm 17:56 Sunny 74 23.3 40 4.4 29 29 S 16 26 29.46 998 10 16 0.00 0.00
6:56 pm 18:56 Sunny 75 23.9 38 3.3 26 26 S 15 24 29.46 998 10 16 0.00 0.00
7:56 pm 19:56 Sunny 71 21.7 39 3.9 31 31 S 12 19 29.44 997 10 16 0.00 0.00
8:56 pm 20:56 Clear 70 21.1 39 3.9 32 32 S 14 22 29.42 996 10 16 0.00 0.00
9:56 pm 21:56 Clear 71 21.7 39 3.9 31 31 S 16 26 29.40 996 10 16 0.00 0.00
10:56 pm 22:56 Clear 72 22.2 39 3.9 30 30 S 13 20 29.37 995 10 16 0.00 0.00
11:56 pm 23:56 Clear 71 21.7 42 5.6 35 35 S 17 28 29.34 994 10 16 0.00 0.00

Powered by AerisWeather